Location: Asni�res
(49.1337°N, 2.3555°E)
Time: 23:42:55
(UTC+00:00)

Cosmos 1727 Rocket - Pass Details

Date: 16 October 2021
Orbit: 960 x 997 km, 82.9° (Epoch: 27 November)

Event Time Altitude Azimuth Distance (km) Brightness Sun altitude
Rises 18:10:58 0° 348° (NNW) 3,689 7.2 -12.6°
Reaches altitude 10° 18:13:30 10° 346° (NNW) 2,732 6.5 -13.0°
Maximum altitude 18:19:42 68° 266° (W) 1,041 4.4 -14.1°
Drops below altitude 10° 18:25:48 10° 184° (S) 2,693 6.3 -15.0°
Sets 18:28:17 0° 182° (S) 3,633 7.0 -15.5°
